Find Starlink 1873

NORAD ID: 47158 Int'l Des: 2020-088 Owner: SPXS Country: US Constellation: starlink operational
LEOCIRCULAR

Live-Position

3D-Globus wird geladen...

Über Starlink 1873

Beschreibung wird geladen...

Nächste Überflüge

Passes for default location (London). Set your location on the main map for personalized predictions.

Höhenverlauf

Loading altitude history...

Zweizeiliger Elementsatz

1 47158U 20088AN 26126.32633705 .00118998 00000-0 95049-3 0 9995
2 47158 53.0443 346.6761 0002430 317.8009 42.2821 15.70270805301318
Epoch: 6. Mai 2026 • Age: 10 hours

Aktueller Status

Höhe 359.7 km
Geschwindigkeit 7.70 km/s
Subsatellitenpunkt 17.69°N, 21.27°E
Startdatum 25. Nov. 2020
Alter 5.4 years
Typ internet

Technische Details

Klassifizierung Payload
Masse 260.00 kg
Trockenmasse 248.00 kg
Gesamtmasse 260.00 kg
Länge 0.20 m
Durchmesser 2.80 m
Spannweite 9.00 m
Form Box + pan
Hersteller SPXS
Bus-Typ Starlink
Phasenstatus In Orbit
Besitzer/Staat SPXS/US

Most Searched